Weather History for KUIN - September, 2013

Change the Weather History Date:

Tuesday, September 10, 2013

  Actual Average Record
Temperature  
Mean Temperature 84 °F 69 °F  
Max Temperature 98 °F 80 °F 100 °F (1933)
Min Temperature 70 °F 58 °F 43 °F (1976)
Degree Days  
Heating Degree Days 0 1  
Month to date heating degree days 0 9  
Since 1 July heating degree days 6 14  
Cooling Degree Days 19 5  
Month to date cooling degree days 119 62  
Year to date cooling degree days 1125 1015  
Growing Degree Days 34 (Base 50)    
Moisture  
Dew Point 63 °F    
Average Humidity 50    
Maximum Humidity 73    
Minimum Humidity 27    
Precipitation  
Precipitation 0.00 in 0.11 in 3.51 in (2014)
Month to date precipitation 0.11 1.11  
Year to date precipitation 28.21 26.86  
Sea Level Pressure  
Sea Level Pressure 30.01 in    
Wind  
Wind Speed 9 mph (SSW)    
Max Wind Speed 21 mph    
Max Gust Speed 26 mph    
Visibility 10 miles    
Events      
T = Trace of Precipitation, MM = Missing Value Source: NWS Daily Summary

Daily Weather History Graph

Daily Weather History Graph

Search for Another Location

Airport or City:

Trip Planner

Search our weather history database for the weather conditions in past years. The results will help you decide how hot, cold, wet, or windy it might be!

Date:

Astronomy

Sep. 10, 2013 Rise Set
Actual Time 6:41 AM CDT 7:21 PM CDT
Civil Twilight 6:13 AM CDT 7:48 PM CDT
Nautical Twilight 5:41 AM CDT 8:20 PM CDT
Astronomical Twilight 5:08 AM CDT 8:53 PM CDT
Moon 12:06 PM CDT (9/10) 10:24 PM CDT (9/10)
Length of Visible Light 13h 34m
Length of Day
12h 39m
Waxing Crescent, 28% of the Moon is Illuminated
Sep 10
Waxing Crescent
Sep 12
First Quarter
Sep 19
Full
Sep 26
Last Quarter
Oct 4
New

Hourly Weather History & Observations

Time (CDT) Temp. Heat Index Dew Point Humidity Pressure Visibility Wind Dir Wind Speed Gust Speed Precip Events Conditions
12:54 AM 73.9 °F - 63.0 °F 68% 29.94 in 10.0 mi SSW 6.9 mph - N/A   Clear
1:54 AM 72.0 °F - 63.0 °F 73% 29.95 in 10.0 mi SSW 5.8 mph - N/A   Clear
2:54 AM 72.0 °F - 63.0 °F 73% 29.96 in 10.0 mi South 5.8 mph - N/A   Clear
3:54 AM 71.1 °F - 62.1 °F 73% 29.96 in 10.0 mi SSW 5.8 mph - N/A   Clear
4:54 AM 71.1 °F - 63.0 °F 75% 29.98 in 10.0 mi SSW 6.9 mph - N/A   Clear
5:54 AM 71.1 °F - 63.0 °F 75% 29.99 in 10.0 mi South 6.9 mph - N/A   Clear
6:54 AM 72.0 °F - 63.0 °F 73% 30.01 in 10.0 mi South 5.8 mph - N/A   Clear
7:54 AM 75.9 °F - 64.0 °F 67% 30.03 in 10.0 mi South 5.8 mph - N/A   Clear
8:54 AM 80.1 °F 81.9 °F 64.9 °F 60% 30.04 in 8.0 mi SSW 10.4 mph - N/A   Clear
9:54 AM 84.9 °F 87.1 °F 66.0 °F 53% 30.04 in 10.0 mi SW 6.9 mph - N/A   Clear
10:54 AM 89.1 °F 91.3 °F 66.0 °F 46% 30.04 in 10.0 mi SW 8.1 mph - N/A   Clear
11:54 AM 91.9 °F 94.1 °F 64.9 °F 41% 30.04 in 10.0 mi SW 12.7 mph 18.4 mph N/A   Clear
12:54 PM 95.0 °F 96.0 °F 63.0 °F 34% 30.02 in 10.0 mi SW 13.8 mph 23.0 mph N/A   Clear
1:54 PM 96.1 °F 96.0 °F 60.1 °F 30% 30.02 in 10.0 mi SW 17.3 mph 25.3 mph N/A   Clear
2:54 PM 96.1 °F 95.2 °F 57.9 °F 28% 30.00 in 10.0 mi WSW 15.0 mph - N/A   Partly Cloudy
3:54 PM 96.1 °F 95.6 °F 59.0 °F 29% 29.99 in 10.0 mi SW 18.4 mph 24.2 mph N/A   Clear
4:54 PM 96.1 °F 96.0 °F 60.1 °F 30% 29.97 in 10.0 mi SW 9.2 mph - N/A   Clear
5:54 PM 93.9 °F 93.6 °F 60.1 °F 32% 29.97 in 10.0 mi SW 10.4 mph - N/A   Clear
6:54 PM 89.1 °F 89.3 °F 62.1 °F 40% 29.99 in 10.0 mi SW 8.1 mph - N/A   Clear
7:54 PM 82.9 °F 83.3 °F 61.0 °F 47% 30.01 in 10.0 mi South 6.9 mph - N/A   Clear
8:54 PM 82.0 °F 83.0 °F 62.1 °F 51% 30.03 in 10.0 mi South 5.8 mph - N/A   Clear
9:54 PM 77.0 °F - 63.0 °F 62% 30.04 in 10.0 mi South 5.8 mph - N/A   Clear
10:54 PM 75.9 °F - 63.0 °F 64% 30.05 in 10.0 mi South 5.8 mph - N/A   Clear
11:54 PM 75.0 °F - 63.0 °F 66% 30.05 in 10.0 mi SSW 6.9 mph - N/A   Clear